{"data":{"norad_id":62894,"epoch":"2026-05-24T17:44:24.916992Z","epoch_age_seconds":90737,"freshness":"FRESH","line1":"1 62894U 25024R   26144.73917728  .00031373  00000+0  11436-2 0  9996","line2":"2 62894  42.9992 256.1427 0001234 269.3718  90.6992 15.27614364 73890","mean_motion":15.27614364,"eccentricity":0.0001234,"inclination_deg":42.9992,"raan_deg":256.1427,"arg_perigee_deg":269.3718,"mean_anomaly_deg":90.6992,"bstar":0.0011436,"rev_number":7389,"period_min":94.264628163708,"perigee_km":482.09954212335,"apogee_km":483.79285745706,"semimajor_km":6861.0831997902,"source":"CELESTRAK","updated_at":"2026-05-25T13:38:19.791531Z"}}